DELTA 1 DEB, 10629

Orbit data source: Space-Track

DELTA 1 DEB, 10629 is space debris in LEO originally from a launch on Thu, 14 Jul 1977 UTC launched from the Air Force Eastern Test Range (AFETR). Debris objects in space refer to the collection of defunct objects orbiting the Earth. Examples of debris include non-operational satellites, rocket bodies, and fragments generated from explosions, collisions, or faulty payload assembly.

Loading next visibility...
Identifier
10629, 1977-065EY
Orbit
LEO
Country
Flag of USUS
Related business
Manufacturer
Unknown
Mission
Spacecraft
Bus & Motor
Unknown
Mass
Unknown
Launch date (UTC)
1977-07-14 (49 years ago)
Launch vehicle
Unknown
Launch site
Air Force Eastern Test Range (AFETR)
Object type
Payload
Rocket body
Debris
Shape & HBR
Unknown shape, 0.1 m
Radar Cross Section
Medium (>0.1 m² and <1 m²)

Expand to show TLE details & history
Last TLE update: 4 days ago

TLE from 4 days ago
0 DELTA 1 DEB
1 10629U 77065EY  26170.04232890  .00000777  00000-0  76725-3 0  9998
2 10629  29.8271  62.9366 0812763  96.3259 273.0396 12.80210054278282
Epoch: 2026-06-19T01:00Z
TLE epoch observation values (Epoch: 2026-06-19T01:00:57.216Z)
Latitude
-0.00002°
Longitude
140.42119°
Altitude
1,356.857 km
Speed
7.174 km/s
True Right ascension
04h 11m 44s
True Declination
0° 00' 00"
Sunlit
Object was in daylight at epoch
Visualization orbit readout
Latitude
Unknown
Longitude
Unknown
Altitude
Unknown
Speed
Unknown
Apparent Right ascension
Unknown
Apparent Declination
Unknown
Sunlit
N/A
Visualization observer readout
Local Sidereal Time
05:36:25
Azimuth
Unknown
Elevation
Unknown
Doppler factor
Unknown
Orbital elements
Apogee altitude
1,971.903 km
Perigee altitude
716.608 km
Semi-major axis
7,722.393 km
Eccentricity
0.08128
Inclination
29.8271°
RAAN
62.9366°
Arg. of periapsis
96.3259°
True anomaly
263.72992°
Mean anomaly
273.0396°
Eccentric anomaly
268.38466°
Mean motion
3.19827 °/min
Orbital period
112.56 mins
BSTAR
0.00076725
Loading maneuver chart data...
Computing Atmospheric mass density...
Loading historical data...
Loading historical data...
Loading historical data...
Loading historical data...
Loading historical data...
Loading historical data...
Loading historical data...

Documentation

Showing up to 5 results
|